カタログに戻る

SL-14 DEB

運用中PO
NORAD 39981·DEBRIS·🇷🇺 Russia

打ち上げ Aug 18, 1987 から Plesetsk Cosmodrome

Loading…

次のパス (今後24時間)

TLE

最新Source: Space-Track

元期: Sep 14, 2026, 11:22 UTC

1 39981U 87068DH  26257.47423704  .00000434  00000-0  31131-3 0  9995
2 39981  82.5554 158.3805 0008022 310.7175 171.1418 13.95020119624474

AllMySatでSL-14 DEBをリアルタイム追跡

Download on the App Store